Regional Weather Roundup
Issued by NWS Boston, MA

Current Version | Previous Version | Text Only | Print | Product List | Glossary Off
Versions: 1 2 3 4 5 6 7 8 9 10 11 12 13 14 15 16 17 18 19 20 21 22 23 24 25 26 27 28 29 30 31 32 33 34 35 36 37 38 39 40 41 42 43 44 45 46 47 48 49 50
555 ASUS41 KBOX 191310 RWRBOX REGIONAL WEATHER ROUNDUP NATIONAL WEATHER SERVICE TAUNTON MA 900 AM EDT THU OCT 19 2017 NOTE: "FAIR" INDICATES FEW OR NO CLOUDS BELOW 12,000 FEET WITH NO SIGNIFICANT WEATHER AND/OR OBSTRUCTIONS TO VISIBILITY. MAZALL-191400- EASTERN MASSACHUSETTS CITY SKY/WX TMP DP RH WIND PRES REMARKS BOSTON MOSUNNY 58 53 84 S7 30.22S BEVERLY SUNNY 57 52 83 S6 30.21S LAWRENCE SUNNY 55 49 80 SW6 30.22F BEDFORD MOSUNNY 55 49 80 SW9 30.20S BLUE HILL N/A 57 51 80 S14 30.21F NORWOOD SUNNY 57 54 89 S3 30.23S MARSHFIELD SUNNY 59 59 100 VRB5 30.23F PLYMOUTH PTSUNNY 58 56 93 SW7 30.24F FOG TAUNTON SUNNY 58 56 93 S5 30.24S NEW BEDFORD SUNNY 58 57 97 SW6 30.24F $$ MAZALL-191400- CAPE COD AND THE ISLANDS CITY SKY/WX TMP DP RH WIND PRES REMARKS FALMOUTH SUNNY 59 59 100 SW8 30.26F HYANNIS MOSUNNY 63 60 90 SW9 30.24F CHATHAM SUNNY 63 62 97 SW7 30.27S PROVINCETOWN PTSUNNY 59 59 100 S12 30.25F NANTUCKET SUNNY 62 61 96 SW10 30.28R MARTHAS VNYRD SUNNY 62 61 96 SW12 30.26S $$ MAZALL-191400- CENTRAL AND WESTERN MASSACHUSETTS CITY SKY/WX TMP DP RH WIND PRES REMARKS WORCESTER SUNNY 57 45 64 SW13 30.21S FITCHBURG SUNNY 51 48 89 CALM 30.21S ORANGE FOG 42 42 100 CALM 30.21S VSB 1/4 SPRINGFIELD PTSUNNY 47 47 99 S3 30.21S FOG WESTFIELD SUNNY 46 45 96 S5 30.22S NORTH ADAMS SUNNY 48 44 86 CALM 30.19S PITTSFIELD SUNNY 43 42 97 CALM 30.20S $$ RIZALL-191400- RHODE ISLAND CITY SKY/WX TMP DP RH WIND PRES REMARKS PROVIDENCE MOSUNNY 57 55 93 CALM 30.25F NEWPORT SUNNY 62 58 86 SW7 30.25S BLOCK ISLAND SUNNY 64 59 83 SW14 30.27S SMITHFIELD SUNNY 55 54 96 VRB5 30.24S WESTERLY SUNNY 55 51 86 CALM 30.26S $$ CTZALL-191400- CONNECTICUT CITY SKY/WX TMP DP RH WIND PRES REMARKS BRADLEY INTL PTSUNNY 52 49 89 S6 30.23S HARTFORD SUNNY 56 51 84 S6 30.23S BRIDGEPORT SUNNY 58 50 75 W3 30.25R DANBURY SUNNY 51 48 89 CALM 30.25S GROTON SUNNY 62 53 72 SW10 30.25S NEW HAVEN MOSUNNY 55 53 93 CALM 30.25R CHESTER FAIR 61 55 82 VRB5 30.25S MERIDEN SUNNY 50 48 93 CALM 30.24S WILLIMANTIC FOG 43 43 100 CALM 30.26S VSB 1/4 OXFORD SUNNY 53 47 79 SW3 30.25R $$ MEZ002-015-021-024-NHZ003-005-008-011-012-014-VTZ005-008-191400- NORTHERN NEW ENGLAND CITY SKY/WX TMP DP RH WIND PRES REMARKS PORTLAND ME MOSUNNY 53 47 79 S6 30.17F BANGOR ME MOSUNNY 54 51 90 S12 30.16F CONCORD NH SUNNY 41 40 96 CALM 30.19F MANCHESTER NH MOSUNNY 46 43 89 CALM 30.18F NASHUA NH SUNNY 50 46 86 SE3 30.20F PORTSMOUTH NH MOSUNNY 51 47 87 SW5 30.18F JAFFREY NH SUNNY 50 48 93 SW5 30.20S KEENE NH MOSUNNY 43 43 100 CALM 30.22S BURLINGTON VT MOSUNNY 60 45 57 S20G29 30.06F MT. WASHINGTON MOSUNNY 43 30 61 W41G48 N/A WCI 31 $$ NYZ052-076-191400- EASTERN NEW YORK CITY SKY/WX TMP DP RH WIND PRES REMARKS ALBANY MOSUNNY 53 46 77 S7 30.18S NEW YORK CITY MOSUNNY 62 46 55 SW7 30.25R $$ ANZALL-191400- MARINE OBSERVATIONS STATION/POSITION TIME TEMP WIND PRES VSBY WAVE AIR SEA DIR/SP/G HT/PER (UTC) (F) (DEG/KT/KT) (MB) (MI) (FT/S) BOSTON BUOY 1150 57 58 180/ 10/ 12 1022.9 1/10 BUZZARDS BAY 1200 62 220/ 13/ 14 1024.9R NANTUCKET SOUND 1250 62 62 220/ 12/ 14 1024.8R 1 MASS BAY-STELLWA 1204 58 59 200/ 12/ 16 1022.6R 2/ 3 ISLE OF SHOALS 1200 55 210/ 13/ 14 1022.4F S OF BLOCK IS NOT AVBL $$ ......................KEY......................... SKY/WX - SKY CONDITION/PRESENT WEATHER TMP - TEMPERATURE IN FAHRENHEIT DWPT - DEWPOINT IN FAHRENHEIT RH - RELATIVE HUMIDITY IN PERCENT WIND - DIRECTION AND SPEED IN MPH PRES - MEAN SEA LEVEL PRESSURE IN INCHES OF HG WCI - WIND CHILL INDEX VSB - VISIBILITY IN MILES HX - HEAT INDEX TC - TEMPERATURE IN CELSIUS VRB - VARIABLE WIND DIRECTION N/A - NOT AVAILABLE

USA.gov is the U.S. government's official web portal to all federal, state and local government web resources and services.